Probability
0 0 0 0 0 0 0 0 0 0 0 0 0 0 0 0 0 0 0 0 0 0 0 0 0 0 0 0 0 0 0 0 0 0 0 0 0 0 0 0 0 0 0
0 0 0 0 0 0 0 0 0 0 0 0 0 0 0 0 0 0 0 0 0 0 0 0 0 0 0 0 0 0 0 0 0 0 0 0 0 0 0 0 0 0 0
0 0 0 0 0 0 0 0 0 0 0 0 0 0 0 0 0 0 0 0 0 0 0 0 0 0 0 0 0 0 0 0 0 0 0 0 0 0 0 0 0 0 0
0 0 0 0 0 0 0 0 0 0 0 0 0 0 0 0 0 0 0 0 0 0 0 0 0 0 0 0 0 0 0 0 0 0 0 0 0 0 0 0 0 0 0
0 0 0 0 0 0 0 0 0 0 0 0 0 0 0 0 0 0 0 0 0 0 0 0 0 0 0 0 0 0 0 0 0 0 0 0 0 0 0 0 0 0 0
0 0 0 0 0 0 0 0 0 0 0 0 0 0 0 0 0 0 0 0 0 0 0 0 0 0 0 0 0 0 0 0 0 0 0 0 0 0 0 0 0 0 0
0 0 0 0 0 0 0 0 0 0 0 0 0 0 0 0 0 0 0 0 0 0 0 0 0 0 0 0 0 0 0 0 0 0 0 0 0 0 0 0 0 0 0
0 0 0 0 0 0 0 0 0 0 0 0 0 0 0 0 0 0 0 0 0 0 0 0 0 0 0 0 0 0 0 0 0 0 0 0 0 0 0 0 0 0 0
0 0 0 0 0 0 0 0 0 0 0 0 0 0 0 0 0 0 0 0 0 0 0 0 0 0 0 0 0 0 0 0 0 0 0 0 0 0 0 0 0 0 0
0 0 0 0 0 0 0 0 0 0 0 0 0 0 0 0 0 0 0 0 0 0 0 0 0 0 0 0 0 0 0 0 0 0 0 0 0 0 0 0 0 0 0
0 0 0 0 0 0 0 0 0 0 0 0 0 0 0 0 0 0 0 0 0 0 0 0 0 0 0 0 0 0 0 0 0 0 0 0 0 0 0 0 0 0 0
0 0 0 0 0 0 0 0 0 0 0 0 0 0 0 0 0 0 0 0 0 0 0 0 0 0 0 0 0 0 0 0 0 0 0 0 0 0 0 0 0 0 0
0 0 0 0 0 0 0 0 0 0 0 0 0 0 0 0 0 0 0 0 0 0 0 0 0 0 0 0 0 0 0 0 0 0 0 0 0 0 0 0 0 0 0
0 0 0 0 0 0 0 0 0 0 0 0 0 0 0 0 0 0 0 0 0 0 0 0 0 0 0 0 0 0 0 0 0 0 0 0 0 0 0 0 0 0 0
0 0 0 0 0 0 0 0 0 0 0 0 0 0 0 0 0 0 0 0 0 0 0 0 0 0 0 0 0 0 0 0 0 0 0 0 0 0 0 0 0 0 0
0 0 0 0 0 0 0 0 0 0 0 0 0 0 0 0 0 0 0 0 0 0 0 0 0 0 0 0 0 0 0 0 0 0 0 0 0 0 0 0 0 0 0
0 0 0 0 0 0 0 0 0 0 0 0 0 0 0 0 0 0 0 0 0 0 0 0 0 0 0 0 0 0 0 0 0 0 0 0 0 0 0 0 0 0 0
0 0 0 0 0 0 0 0 0 0 0 0 0 0 0 0 0 0 0 0 0 0 0 0 0 0 0 0 0 0 0 0 0 0 0 0 0 0 0 0 0 0 0
0 0 0 0 0 0 0 0 0 0 0 0 0 0 0 0 0 0 0 0 0 0 0 0 0 0 0 0 0 0 0 0 0 0 0 0 0 0 0 0 0 0 0
0 0 0 0 0 0 0 0 0 0 0 0 0 0 0 0 0 0 0 0 0 0 0 0 0 0 0 0 0 0 0 0 0 0 0 0 0 0 0 0 0 0 0
0 0 0 0 0 0 0 0 0 0 0 0 0 0 0 0 0 0 0 0 0 0 0 0 0 0 0 0 0 0 0 0 0 0 0 0 0 0 0 0 0 0 0
0 0 0 0 0 0 0 0 0 0 0 0 0 0 0 0 0 0 0 0 0 0 0 0 0 0 0 0 0 0 0 0 0 0 0 0 0 0 0 0 0 0 0
0 0 0 0 0 0 0 0 0 0 0 0 0 0 0 0 0 0 0 0 0 0 0 0 0 0 0 0 0 0 0 0 0 0 0 0 0 0 0 0 0 0 0
0 0 0 0 0 0 0 0 0 0 0 0 0 0 0 0 0 0 0 0 0 0 0 0 0 0 0 0 0 0 0 0 0 0 0 0 0 0 0 0 0 0 0
0 0 0 0 0 0 0 0 0 0 0 0 0 0 0 0 0 0 0 0 0 0 0 0 0 0 0 0 0 0 0 0 0 0 0 0 0 0 0 0 0 0 0
0 0 0 0 0 0 0 0 0 0 0 0 0 0 0 0 0 0 0 0 0 0 0 0 0 0 0 0 0 0 0 0 0 0 0 0 0 0 0 0 0 0 0
Wind_Speed
9 12 15 13 12 11 11 12 12 12 12 13 13 13 13 14 14 14 14 15 15 15 15 16 16 16 16 16 16 16 16 16 16 16 17 18 17 18 18 18 16 11 18
13 14 15 13 13 12 12 12 12 12 12 12 12 12 13 13 13 13 14 14 14 14 15 15 15 15 15 15 15 15 14 14 14 14 14 14 16 16 16 16 16 11 16
14 14 13 14 13 13 12 12 12 12 12 12 12 12 12 12 12 12 13 13 13 14 14 14 14 14 14 14 14 13 13 12 12 13 12 7 9 14 15 15 14 15 14
14 13 12 14 14 13 13 12 12 12 12 11 11 11 12 12 11 12 12 12 12 12 13 13 13 13 13 13 12 12 12 11 11 12 7 6 7 12 13 13 13 13 13
12 12 14 16 14 13 13 12 12 11 11 11 11 11 11 11 11 11 11 11 11 11 11 11 11 11 11 11 11 11 10 10 10 8 5 5 5 10 11 11 11 10 10
12 13 14 16 15 14 13 12 12 11 11 11 11 10 10 10 10 10 9 9 9 9 9 10 10 10 10 10 10 10 9 10 8 4 4 5 5 8 9 9 8 8 8
12 14 14 15 15 14 13 12 12 11 11 11 10 10 9 9 9 8 8 8 8 8 8 8 8 8 9 9 8 8 8 9 4 2 3 4 5 8 8 9 8 7 7
12 14 13 15 15 14 13 13 12 11 11 10 9 9 8 8 7 7 7 6 6 6 6 6 7 7 7 7 7 7 7 8 6 3 2 3 5 7 8 8 8 8 8
11 13 11 10 10 13 13 13 12 11 11 10 9 8 7 6 6 6 5 5 4 4 5 5 5 5 5 5 5 6 7 9 6 3 1 3 4 7 8 8 8 9 9
9 11 11 10 9 8 8 11 11 11 10 10 9 8 7 6 5 6 5 4 3 3 3 3 4 4 4 4 4 5 7 8 5 2 1 2 4 7 9 9 10 10 10
8 9 10 10 10 9 9 10 10 9 9 9 7 8 7 4 4 4 5 5 2 1 1 2 3 4 5 5 6 6 6 4 3 1 1 1 3 7 10 10 11 11 11
8 8 8 9 9 9 8 8 6 6 6 6 5 6 4 3 2 4 6 5 4 3 3 4 5 6 6 3 4 5 3 3 3 2 1 1 4 8 10 11 11 12 12
8 7 7 8 9 8 6 6 4 4 4 5 5 5 3 2 2 2 2 3 3 4 2 3 4 3 2 1 2 2 3 2 2 2 1 3 5 8 11 12 12 12 12
8 8 7 8 8 7 6 5 5 4 3 3 3 3 2 2 1 1 1 2 1 1 1 1 2 3 2 3 3 3 4 3 2 2 2 4 5 8 11 12 12 13 13
9 9 8 8 8 7 6 5 5 4 4 4 3 3 3 2 1 1 0 0 0 0 1 1 2 3 3 3 3 4 5 5 4 3 2 4 6 7 10 11 12 12 12
10 10 8 8 8 7 5 5 4 4 4 4 3 3 3 2 2 1 0 0 0 0 1 2 3 2 2 2 4 5 5 4 4 5 4 3 5 6 9 10 11 12 12
9 10 9 9 9 8 7 6 4 4 4 3 3 3 3 3 2 1 1 0 0 0 1 2 3 2 3 3 4 5 4 4 5 5 4 2 2 4 7 9 10 11 12
9 10 10 8 8 8 7 6 4 4 5 4 3 3 4 3 3 1 1 1 0 0 1 1 1 2 3 3 4 4 4 4 5 4 4 3 2 1 3 7 10 11 12
8 9 10 9 8 8 7 6 5 4 4 4 4 3 3 3 3 2 1 1 0 0 0 1 1 1 3 4 4 4 4 5 5 4 4 3 2 2 2 5 8 10 12
8 9 9 9 8 8 6 5 4 4 4 4 4 4 4 3 4 2 1 1 1 0 0 1 2 2 2 3 4 5 6 6 4 3 3 3 2 3 3 3 3 5 10
7 8 9 10 8 7 6 5 5 4 4 3 3 5 5 4 4 3 2 1 1 1 0 1 1 2 2 2 3 4 5 5 3 1 1 2 3 4 3 4 3 2 4
9 8 9 10 9 8 6 5 5 5 4 4 4 4 5 4 4 3 3 2 2 1 0 0 0 1 2 2 1 3 5 5 4 3 3 3 3 3 4 5 4 4 3
9 9 8 10 9 8 7 5 5 3 3 3 4 3 4 5 4 4 3 2 2 2 1 1 1 1 1 2 0 0 1 3 5 4 4 3 3 4 4 4 5 5 5
8 8 8 9 9 8 8 8 8 6 5 5 4 4 4 5 5 4 4 3 3 2 2 2 2 1 1 2 2 1 3 3 2 5 4 4 5 5 6 6 5 5 5
8 7 7 8 9 9 8 9 8 6 5 4 5 6 5 4 5 5 4 4 3 2 3 2 1 2 2 2 2 2 2 2 4 5 8 6 4 4 5 6 5 5 5
7 7 7 8 8 9 9 9 9 8 7 7 6 6 5 3 4 5 4 4 4 3 3 3 3 3 3 3 2 2 3 3 3 4 7 8 7 5 6 5 5 5 5
Wind_Direction
125 131 139 136 130 123 115 109 103 98 91 87 83 79 74 69 65 64 68 66 64 61 60 60 58 57 56 56 55 55 53 52 53 55 56 53 52 52 50 49 49 43 47
129 133 141 138 133 127 120 113 108 102 97 92 87 82 78 73 67 65 68 67 64 62 61 60 58 57 57 56 54 54 53 51 50 51 55 53 52 51 51 49 48 46 46
127 133 141 139 136 130 123 120 113 108 103 97 91 87 82 77 72 69 70 67 65 63 61 60 59 57 56 55 54 52 50 46 42 46 47 44 45 50 49 47 47 45 44
130 138 140 139 138 133 128 125 120 114 110 104 97 91 86 81 76 75 73 70 68 65 62 59 58 56 55 54 52 49 45 37 31 41 41 38 33 44 45 44 43 43 41
131 134 135 143 141 137 133 128 125 120 115 110 104 97 91 86 82 78 75 72 69 66 63 60 57 54 53 52 49 44 37 24 24 33 35 43 32 33 37 38 35 35 35
133 129 140 146 146 143 139 135 131 125 120 117 110 103 98 93 89 83 78 73 70 66 61 58 55 53 50 48 44 38 27 14 19 29 35 40 27 22 24 26 26 24 25
135 132 144 149 149 148 145 143 140 134 129 125 119 112 106 101 96 91 83 76 70 64 60 55 52 49 45 41 37 29 14 355 4 36 48 55 27 17 11 10 7 6 6
132 134 143 153 153 153 150 148 146 143 139 135 129 122 116 111 105 99 92 82 72 63 56 52 49 42 36 29 24 13 357 343 346 2 62 75 29 4 356 353 350 348 347
133 136 144 153 156 157 154 153 152 151 147 144 140 135 131 125 119 112 104 91 78 64 51 42 32 21 15 8 1 347 333 323 316 295 21 79 20 351 342 338 336 334 333
136 141 150 157 158 157 156 157 157 156 156 154 149 146 149 150 147 142 130 114 96 67 42 24 7 352 340 325 315 308 307 307 283 276 73 77 10 337 329 327 326 323 321
146 148 156 160 160 161 160 160 158 160 161 159 158 163 166 179 170 163 139 142 140 121 344 330 318 306 297 286 275 280 291 275 285 293 128 111 334 323 320 320 319 317 315
164 160 159 159 159 160 160 156 165 166 161 174 166 173 194 184 152 140 149 170 195 224 257 269 279 288 281 263 251 258 269 288 319 302 175 203 312 316 315 314 313 312 311
168 166 162 157 157 157 153 159 161 159 164 182 169 181 180 145 137 140 160 178 214 224 240 255 266 264 278 296 279 268 281 305 290 290 220 237 293 309 311 311 310 308 308
169 169 166 158 156 159 156 160 159 158 163 161 159 169 150 139 159 141 167 165 195 209 244 272 274 280 301 301 299 308 313 304 290 285 243 243 279 302 309 310 309 309 308
171 171 171 164 159 161 158 159 162 159 156 152 155 167 146 139 140 112 162 126 145 8 312 307 306 322 327 322 326 323 311 308 308 309 288 260 274 294 307 310 311 312 312
171 171 171 171 165 163 161 161 160 152 146 146 148 153 143 132 124 136 193 57 8 330 327 319 311 326 320 324 318 306 303 315 318 318 309 291 284 289 302 309 312 314 313
169 170 172 174 170 167 167 165 156 151 146 144 145 153 146 134 133 147 153 167 235 334 326 319 329 338 324 323 317 320 327 320 310 305 309 304 291 280 294 305 311 313 313
166 169 171 173 173 169 166 163 154 153 149 149 149 151 151 148 149 154 158 209 218 257 314 317 327 337 334 335 329 323 316 306 299 299 304 303 305 305 294 300 307 311 312
169 167 167 169 174 168 161 157 154 151 150 150 148 150 156 160 156 158 173 208 196 68 318 325 346 355 338 328 317 307 300 294 287 293 298 299 298 292 286 293 298 303 305
172 168 167 167 173 164 158 154 150 150 153 149 151 157 160 165 162 167 172 197 148 95 333 345 338 344 325 314 317 305 289 278 267 265 280 298 301 300 301 302 296 299 306
170 172 170 168 174 168 161 162 162 167 164 160 160 165 166 168 167 166 171 177 138 137 248 322 355 346 330 338 335 316 299 284 266 258 291 311 313 311 306 302 298 296 304
176 178 175 171 172 173 168 165 162 160 165 164 163 170 171 174 171 165 171 174 159 149 287 309 29 348 317 357 0 335 332 333 347 341 320 300 300 312 311 303 299 297 292
178 180 179 173 170 172 164 151 143 133 135 153 171 174 179 175 172 166 172 175 167 164 194 213 197 208 288 314 0 145 324 299 315 301 293 298 311 311 299 295 291 287 283
180 173 175 170 169 173 167 164 166 170 174 180 171 170 181 181 175 169 172 176 173 173 190 208 192 193 199 269 292 232 220 239 284 306 305 305 309 301 296 296 293 286 279
168 165 171 170 173 176 176 175 178 179 178 165 164 173 182 183 174 169 172 174 181 186 193 194 194 215 207 222 238 257 273 274 246 261 287 295 296 285 290 292 289 284 280
160 161 169 175 179 180 182 181 183 184 181 177 177 178 178 172 175 177 176 178 185 185 190 193 202 218 228 235 236 233 235 246 257 260 278 291 292 286 287 283 285 283 278